Winner, SD

9:48 AM CDT on August 20, 2017 (GMT -0500)
Winner

Weather History for KICR - April, 2013

Change the Weather History Date:

Sunday, April 28, 2013

  Actual Average Record
Temperature  
Mean Temperature 64 °F 52 °F  
Max Temperature 78 °F 64 °F 78 °F (2013)
Min Temperature 49 °F 41 °F 34 °F (2014)
Degree Days  
Heating Degree Days 1 13  
Month to date heating degree days 718 494  
Since 1 July heating degree days 6393 6379  
Cooling Degree Days 0 0  
Month to date cooling degree days 2 0  
Year to date cooling degree days 2 0  
Growing Degree Days 16 (Base 50)    
Moisture  
Dew Point 34 °F    
Average Humidity 33    
Maximum Humidity 47    
Minimum Humidity 19    
Precipitation  
Precipitation 0.00 in 0.11 in 1.50 in (2014)
Month to date precipitation 0.86 2.26  
Year to date precipitation 1.46 4.40  
Sea Level Pressure  
Sea Level Pressure 29.77 in    
Wind  
Wind Speed 16 mph (NW)    
Max Wind Speed 31 mph    
Max Gust Speed 40 mph    
Visibility 10 miles    
Events      
T = Trace of Precipitation, MM = Missing Value Source: NWS Daily Summary

Daily Weather History Graph

Daily Weather History Graph

Search for Another Location

Airport or City:

Trip Planner

Search our weather history database for the weather conditions in past years. The results will help you decide how hot, cold, wet, or windy it might be!

Date:

Astronomy

Apr. 28, 2013 Rise Set
Actual Time 6:36 AM CDT 8:38 PM CDT
Civil Twilight 6:05 AM CDT 9:09 PM CDT
Nautical Twilight 5:27 AM CDT 9:47 PM CDT
Astronomical Twilight 4:45 AM CDT 10:29 PM CDT
Moon No Moon Rise 8:51 AM CDT (4/28)
Length of Visible Light 15h 03m
Length of Day
14h 01m
Waning Gibbous, 88% of the Moon is Illuminated
Apr 28
Waning Gibbous
May 2
Last Quarter
May 9
New
May 17
First Quarter
May 24
Full

Hourly Weather History & Observations

Time (CDT) Temp. Dew Point Humidity Pressure Visibility Wind Dir Wind Speed Gust Speed Precip Events Conditions
12:53 AM 63.0 °F 33.1 °F 33% 29.75 in 10.0 mi SSW 5.8 mph - N/A   Clear
1:53 AM 62.1 °F 32.0 °F 32% 29.74 in 10.0 mi SSW 4.6 mph - N/A   Clear
2:53 AM 61.0 °F 33.1 °F 35% 29.73 in 10.0 mi SSW 9.2 mph - N/A   Clear
3:53 AM 57.0 °F 34.0 °F 42% 29.72 in 10.0 mi SSW 15.0 mph - N/A   Clear
4:53 AM 57.0 °F 33.1 °F 40% 29.70 in 10.0 mi SSW 19.6 mph - N/A   Clear
6:53 AM 57.9 °F 35.1 °F 42% 29.69 in 10.0 mi SSW 18.4 mph - N/A   Clear
8:53 AM 64.0 °F 36.0 °F 35% 29.69 in 10.0 mi WSW 12.7 mph - N/A   Clear
9:53 AM 71.1 °F 34.0 °F 26% 29.70 in 10.0 mi WNW 17.3 mph 21.9 mph N/A   Clear
10:53 AM 70.0 °F 36.0 °F 29% 29.71 in 10.0 mi NW 15.0 mph - N/A   Clear
11:53 AM 72.0 °F 37.9 °F 29% 29.72 in 10.0 mi NNW 17.3 mph - N/A   Clear
12:53 PM 73.9 °F 35.1 °F 24% 29.74 in 10.0 mi North 21.9 mph 31.1 mph N/A   Clear
1:53 PM 78.1 °F 33.1 °F 19% 29.75 in 10.0 mi North 28.8 mph 40.3 mph N/A   Clear
2:53 PM 75.9 °F 34.0 °F 22% 29.78 in 10.0 mi North 25.3 mph 34.5 mph N/A   Clear
3:53 PM 75.9 °F 34.0 °F 22% 29.77 in 10.0 mi North 19.6 mph 31.1 mph N/A   Clear
4:53 PM 73.9 °F 34.0 °F 23% 29.78 in 10.0 mi North 20.7 mph 29.9 mph N/A   Clear
5:53 PM 73.0 °F 34.0 °F 24% 29.79 in 10.0 mi North 19.6 mph 28.8 mph N/A   Clear
6:53 PM 70.0 °F 34.0 °F 27% 29.80 in 10.0 mi NNW 15.0 mph - N/A   Clear
7:53 PM 66.0 °F 36.0 °F 33% 29.82 in 10.0 mi NNW 15.0 mph - N/A   Clear
8:53 PM 59.0 °F 37.0 °F 44% 29.84 in 10.0 mi NNW 8.1 mph - N/A   Clear
9:53 PM 55.0 °F 36.0 °F 49% 29.86 in 10.0 mi NNE 13.8 mph - N/A   Clear
10:53 PM 54.0 °F 34.0 °F 47% 29.88 in 10.0 mi NE 9.2 mph - N/A   Clear
11:53 PM 54.0 °F 32.0 °F 43% 29.87 in 10.0 mi ENE 11.5 mph - N/A   Clear